Showing default

BD-19, 40749

Orbit data source: Space-Track

BD-19, 40749 is a payload satellite owned by CNSA (CN) in MEO that was launched on Sat, 25 Jul 2015 UTC via a CHANG ZHENG 3B/YZ-1 launch vehicle from the Xichang Space Center, China (XSC). Payload-class satellites include a variety of spacecraft equipped with specific instruments for various scientific and technological missions. These include communications satellites like Starlink; space stations such as the ISS; scientific satellites like the Hubble; Earth observation satellites from companies like Planet Labs, Umbra, and HawkEye 360; GPS; miniature CubeSats for education and research; and military/defense satellites.

Loading next visibility...
Identifier
40749, 2015-037B
Orbit
MEO
Country
Flag of CNCN / PRC
Related business
Manufacturer
CAST
Mission
Awaiting activation Defense Navigation
Bus & Motor
BD-3M, Unknown motor
Mass
1,014 kg wet, ~850 kg dry
Launch date (UTC)
2015-07-25 (11 years ago)
Launch vehicle
CHANG ZHENG 3B/YZ-1
Launch site
Xichang Space Center, China (XSC)
Object type
Payload
Rocket body
Debris
Shape & HBR
Box + 2 Pan, 5.0 m
Radar Cross Section
8.984 m², Large (>1 m²)

Expand to show TLE details & history
Last TLE update: 3 days ago

TLE from 3 days ago
0 BD-19
1 40749U 15037B   26167.45695291 -.00000070  00000-0  00000-0 0  9991
2 40749  54.8681 302.0590 0003448  61.6955 298.3263  1.86254753 74115
Epoch: 2026-06-16T10:58Z
TLE epoch observation values (Epoch: 2026-06-16T10:58:00.731Z)
Latitude
0.00002°
Longitude
-127.19569°
Altitude
21,521.404 km
Speed
3.78 km/s
True Right ascension
20h 08m 08s
True Declination
0° 00' 00"
Sunlit
Object was in daylight at epoch
Visualization orbit readout
Latitude
Unknown
Longitude
Unknown
Altitude
Unknown
Speed
Unknown
Apparent Right ascension
Unknown
Apparent Declination
Unknown
Sunlit
N/A
Visualization observer readout
Local Sidereal Time
04:59:29
Azimuth
Unknown
Elevation
Unknown
Doppler factor
Unknown
Orbital elements
Apogee altitude
21,535.312 km
Perigee altitude
21,516.07 km
Semi-major axis
27,903.828 km
Eccentricity
0.00034
Inclination
54.8681°
RAAN
302.059°
Arg. of periapsis
61.6955°
True anomaly
298.29151°
Mean anomaly
298.3263°
Eccentric anomaly
298.30891°
Mean motion
0.46564 °/min
Orbital period
773.13 mins
BSTAR
0
Loading maneuver chart data...
Computing Atmospheric mass density...
Loading historical data...
Loading historical data...
Loading historical data...
Loading historical data...
Loading historical data...
Loading historical data...
Loading historical data...
Other satellites on launch #37 in the year 2015 (2015-07-25 UTC)

Documentation

Showing up to 5 results
|